Time,TemperatureF,DewpointF,PressureIn,WindDirection,WindDirectionDegrees,WindSpeedMPH,WindSpeedGustMPH,Humidity,HourlyPrecipIn,Conditions,Clouds,dailyrainin,SoftwareType,DateUTC
2013-02-02 00:02:00,50.0,8.0,-100.00,NW,312,22.0,26.0,18,-99.99,,,-99.99,,2013-02-02 06:02:00,
2013-02-02 00:12:00,50.0,8.0,-100.00,NW,307,23.0,27.0,18,-99.99,,,-99.99,,2013-02-02 06:12:00,
2013-02-02 00:22:00,48.0,7.0,-100.00,NW,306,22.0,27.0,18,-99.99,,,-99.99,,2013-02-02 06:22:00,
2013-02-02 00:31:00,50.0,8.0,-100.00,NW,305,22.0,26.0,18,-99.99,,,-99.99,,2013-02-02 06:31:00,
2013-02-02 00:41:00,50.0,8.0,-100.00,NW,306,21.0,27.0,18,-99.99,,,-99.99,,2013-02-02 06:41:00,
2013-02-02 00:51:00,48.0,7.0,-100.00,NW,310,22.0,27.0,18,-99.99,,,-99.99,,2013-02-02 06:51:00,
2013-02-02 01:02:00,48.0,8.0,-100.00,NW,309,23.0,27.0,19,-99.99,,,-99.99,,2013-02-02 07:02:00,
2013-02-02 01:11:00,48.0,8.0,-100.00,NW,310,22.0,27.0,19,-99.99,,,-99.99,,2013-02-02 07:11:00,
2013-02-02 01:21:00,48.0,8.0,-100.00,NW,311,22.0,28.0,19,-99.99,,,-99.99,,2013-02-02 07:21:00,
2013-02-02 01:31:00,48.0,9.0,-100.00,NW,315,24.0,28.0,20,-99.99,,,-99.99,,2013-02-02 07:31:00,
2013-02-02 01:42:00,48.0,9.0,-100.00,NW,316,25.0,29.0,20,-99.99,,,-99.99,,2013-02-02 07:42:00,
2013-02-02 01:51:00,46.0,8.0,-100.00,NW,315,25.0,31.0,20,-99.99,,,-99.99,,2013-02-02 07:51:00,
2013-02-02 02:01:00,46.0,8.0,-100.00,NW,316,25.0,30.0,20,-99.99,,,-99.99,,2013-02-02 08:01:00,
2013-02-02 02:11:00,48.0,10.0,-100.00,NW,315,25.0,31.0,21,-99.99,,,-99.99,,2013-02-02 08:11:00,
2013-02-02 02:21:00,48.0,10.0,-100.00,NW,316,25.0,30.0,21,-99.99,,,-99.99,,2013-02-02 08:21:00,
2013-02-02 02:31:00,46.0,10.0,-100.00,NW,317,25.0,29.0,22,-99.99,,,-99.99,,2013-02-02 08:31:00,
2013-02-02 02:41:00,46.0,10.0,-100.00,NW,317,25.0,29.0,22,-99.99,,,-99.99,,2013-02-02 08:41:00,
2013-02-02 02:52:00,46.0,11.0,-100.00,NW,315,25.0,31.0,23,-99.99,,,-99.99,,2013-02-02 08:52:00,
2013-02-02 03:01:00,46.0,11.0,-100.00,NW,312,25.0,29.0,23,-99.99,,,-99.99,,2013-02-02 09:01:00,
2013-02-02 03:11:00,46.0,10.0,-100.00,NW,313,24.0,31.0,22,-99.99,,,-99.99,,2013-02-02 09:11:00,
2013-02-02 03:22:00,46.0,10.0,-100.00,NW,316,23.0,41.0,22,-99.99,,,-99.99,,2013-02-02 09:22:00,
2013-02-02 03:31:00,46.0,10.0,-100.00,NW,315,23.0,29.0,22,-99.99,,,-99.99,,2013-02-02 09:31:00,
2013-02-02 03:41:00,46.0,9.0,-100.00,NW,311,22.0,28.0,21,-99.99,,,-99.99,,2013-02-02 09:41:00,
2013-02-02 03:52:00,46.0,9.0,-100.00,NW,322,23.0,28.0,21,-99.99,,,-99.99,,2013-02-02 09:52:00,
2013-02-02 04:01:00,46.0,9.0,-100.00,NW,324,23.0,27.0,21,-99.99,,,-99.99,,2013-02-02 10:01:00,
2013-02-02 04:11:00,46.0,9.0,-100.00,NW,316,23.0,27.0,21,-99.99,,,-99.99,,2013-02-02 10:11:00,
2013-02-02 04:21:00,46.0,8.0,-100.00,NW,317,20.0,25.0,20,-99.99,,,-99.99,,2013-02-02 10:21:00,
2013-02-02 04:31:00,45.0,6.0,-100.00,NW,321,21.0,25.0,20,-99.99,,,-99.99,,2013-02-02 10:31:00,
2013-02-02 04:42:00,46.0,5.0,-100.00,NW,320,20.0,27.0,18,-99.99,,,-99.99,,2013-02-02 10:42:00,
2013-02-02 04:52:00,45.0,5.0,-100.00,NW,325,21.0,27.0,19,-99.99,,,-99.99,,2013-02-02 10:52:00,
2013-02-02 05:01:00,46.0,6.0,-100.00,NNW,328,23.0,29.0,19,-99.99,,,-99.99,,2013-02-02 11:01:00,
2013-02-02 05:11:00,45.0,4.0,-100.00,NNW,327,22.0,29.0,18,-99.99,,,-99.99,,2013-02-02 11:11:00,
2013-02-02 05:21:00,45.0,4.0,-100.00,NNW,332,21.0,26.0,18,-99.99,,,-99.99,,2013-02-02 11:21:00,
2013-02-02 05:32:00,46.0,4.0,-100.00,NNW,327,23.0,29.0,17,-99.99,,,-99.99,,2013-02-02 11:32:00,
2013-02-02 05:42:00,46.0,3.0,-100.00,NNW,328,21.0,29.0,16,-99.99,,,-99.99,,2013-02-02 11:42:00,
2013-02-02 05:52:00,45.0,1.0,-100.00,NNW,334,20.0,26.0,16,-99.99,,,-99.99,,2013-02-02 11:52:00,
2013-02-02 06:01:00,45.0,1.0,-100.00,NNW,336,20.0,22.0,16,-99.99,,,-99.99,,2013-02-02 12:01:00,
2013-02-02 06:11:00,45.0,0.0,-100.00,NNW,345,18.0,21.0,15,-99.99,,,-99.99,,2013-02-02 12:11:00,
2013-02-02 06:22:00,46.0,1.0,-100.00,NNW,342,19.0,23.0,15,-99.99,,,-99.99,,2013-02-02 12:22:00,
2013-02-02 06:32:00,45.0,1.0,-100.00,North,352,16.0,19.0,16,-99.99,,,-99.99,,2013-02-02 12:32:00,
2013-02-02 06:42:00,45.0,3.0,-100.00,North,351,17.0,20.0,17,-99.99,,,-99.99,,2013-02-02 12:42:00,
2013-02-02 06:52:00,46.0,3.0,-100.00,North,350,17.0,19.0,16,-99.99,,,-99.99,,2013-02-02 12:52:00,
2013-02-02 07:02:00,46.0,3.0,-100.00,North,353,16.0,19.0,16,-99.99,,,-99.99,,2013-02-02 13:02:00,
2013-02-02 07:11:00,46.0,4.0,-100.00,North,350,16.0,18.0,17,-99.99,,,-99.99,,2013-02-02 13:11:00,
2013-02-02 07:21:00,46.0,5.0,-100.00,North,357,15.0,19.0,18,-99.99,,,-99.99,,2013-02-02 13:21:00,
2013-02-02 07:32:00,46.0,5.0,-100.00,North,4,13.0,19.0,18,-99.99,,,-99.99,,2013-02-02 13:32:00,
2013-02-02 07:42:00,46.0,5.0,-100.00,North,4,13.0,19.0,18,-99.99,,,-99.99,,2013-02-02 13:42:00,
2013-02-02 07:52:00,45.0,5.0,-100.00,North,3,15.0,19.0,19,-99.99,,,-99.99,,2013-02-02 13:52:00,
2013-02-02 08:02:00,45.0,5.0,-100.00,North,3,15.0,17.0,19,-99.99,,,-99.99,,2013-02-02 14:02:00,
2013-02-02 08:11:00,45.0,6.0,-100.00,North,359,14.0,17.0,20,-99.99,,,-99.99,,2013-02-02 14:11:00,
2013-02-02 08:22:00,46.0,6.0,-100.00,North,9,12.0,17.0,19,-99.99,,,-99.99,,2013-02-02 14:22:00,
2013-02-02 08:32:00,46.0,6.0,-100.00,NNE,13,12.0,15.0,19,-99.99,,,-99.99,,2013-02-02 14:32:00,
2013-02-02 08:42:00,46.0,6.0,-100.00,NE,34,7.0,12.0,19,-99.99,,,-99.99,,2013-02-02 14:42:00,
2013-02-02 08:52:00,46.0,6.0,-100.00,NNE,15,9.0,15.0,19,-99.99,,,-99.99,,2013-02-02 14:52:00,
2013-02-02 09:03:00,46.0,8.0,-100.00,North,7,9.0,13.0,20,-99.99,,,-99.99,,2013-02-02 15:03:00,
2013-02-02 09:12:00,45.0,6.0,-100.00,North,9,7.0,10.0,20,-99.99,,,-99.99,,2013-02-02 15:12:00,
2013-02-02 09:22:00,45.0,8.0,-100.00,NE,39,7.0,13.0,22,-99.99,,,-99.99,,2013-02-02 15:22:00,
2013-02-02 09:32:00,41.0,10.0,-100.00,NE,51,9.0,13.0,28,-99.99,,,-99.99,,2013-02-02 15:32:00,
2013-02-02 09:42:00,41.0,11.0,-100.00,NE,34,6.0,11.0,29,-99.99,,,-99.99,,2013-02-02 15:42:00,
2013-02-02 09:52:00,43.0,12.0,-100.00,NNE,23,8.0,11.0,28,-99.99,,,-99.99,,2013-02-02 15:52:00,
2013-02-02 10:03:00,43.0,11.0,-100.00,NNE,29,8.0,17.0,27,-99.99,,,-99.99,,2013-02-02 16:03:00,
2013-02-02 10:11:00,43.0,10.0,-100.00,NNE,13,13.0,22.0,26,-99.99,,,-99.99,,2013-02-02 16:11:00,
2013-02-02 10:22:00,43.0,10.0,-100.00,North,11,13.0,19.0,26,-99.99,,,-99.99,,2013-02-02 16:22:00,
2013-02-02 10:32:00,45.0,12.0,-100.00,North,10,15.0,25.0,26,-99.99,,,-99.99,,2013-02-02 16:32:00,
2013-02-02 10:42:00,45.0,11.0,-100.00,NNE,13,17.0,25.0,25,-99.99,,,-99.99,,2013-02-02 16:42:00,
2013-02-02 10:52:00,45.0,10.0,-100.00,NNE,13,16.0,22.0,24,-99.99,,,-99.99,,2013-02-02 16:52:00,
2013-02-02 11:02:00,45.0,10.0,-100.00,NNE,13,16.0,22.0,24,-99.99,,,-99.99,,2013-02-02 17:02:00,
2013-02-02 11:11:00,45.0,10.0,-100.00,North,10,13.0,21.0,24,-99.99,,,-99.99,,2013-02-02 17:11:00,
2013-02-02 11:22:00,46.0,12.0,-100.00,North,5,11.0,18.0,24,-99.99,,,-99.99,,2013-02-02 17:22:00,
2013-02-02 11:32:00,46.0,12.0,-100.00,North,8,13.0,21.0,24,-99.99,,,-99.99,,2013-02-02 17:32:00,
2013-02-02 11:42:00,46.0,12.0,-100.00,NNE,12,10.0,17.0,24,-99.99,,,-99.99,,2013-02-02 17:42:00,
2013-02-02 11:52:00,48.0,11.0,-100.00,NNE,19,10.0,16.0,22,-99.99,,,-99.99,,2013-02-02 17:52:00,
2013-02-02 12:02:00,48.0,11.0,-100.00,NNE,19,10.0,16.0,22,-99.99,,,-99.99,,2013-02-02 18:02:00,
2013-02-02 12:12:00,48.0,11.0,-100.00,North,6,9.0,14.0,22,-99.99,,,-99.99,,2013-02-02 18:12:00,
2013-02-02 12:22:00,48.0,10.0,-100.00,North,360,9.0,15.0,21,-99.99,,,-99.99,,2013-02-02 18:22:00,
2013-02-02 12:32:00,48.0,10.0,-100.00,North,8,9.0,14.0,21,-99.99,,,-99.99,,2013-02-02 18:32:00,
2013-02-02 12:42:00,48.0,10.0,-100.00,North,4,10.0,18.0,21,-99.99,,,-99.99,,2013-02-02 18:42:00,
2013-02-02 12:52:00,48.0,9.0,-100.00,North,8,11.0,16.0,20,-99.99,,,-99.99,,2013-02-02 18:52:00,
2013-02-02 13:02:00,50.0,9.0,-100.00,NNE,14,11.0,15.0,19,-99.99,,,-99.99,,2013-02-02 19:02:00,
2013-02-02 13:12:00,50.0,9.0,-100.00,North,9,10.0,16.0,19,-99.99,,,-99.99,,2013-02-02 19:12:00,
2013-02-02 13:21:00,50.0,9.0,-100.00,North,3,7.0,13.0,19,-99.99,,,-99.99,,2013-02-02 19:21:00,
2013-02-02 13:32:00,52.0,11.0,-100.00,NNE,19,6.0,10.0,19,-99.99,,,-99.99,,2013-02-02 19:32:00,
2013-02-02 13:42:00,52.0,11.0,-100.00,NNE,21,5.0,22.0,19,-99.99,,,-99.99,,2013-02-02 19:42:00,
2013-02-02 13:51:00,52.0,12.0,-100.00,ENE,71,5.0,12.0,20,-99.99,,,-99.99,,2013-02-02 19:51:00,
2013-02-02 14:01:00,52.0,13.0,-100.00,East,79,7.0,12.0,21,-99.99,,,-99.99,,2013-02-02 20:01:00,
2013-02-02 14:11:00,52.0,13.0,-100.00,ENE,70,8.0,14.0,21,-99.99,,,-99.99,,2013-02-02 20:11:00,
2013-02-02 14:21:00,50.0,13.0,-100.00,NE,55,9.0,17.0,22,-99.99,,,-99.99,,2013-02-02 20:21:00,
2013-02-02 14:32:00,52.0,13.0,-100.00,ENE,65,7.0,14.0,21,-99.99,,,-99.99,,2013-02-02 20:32:00,
2013-02-02 14:42:00,52.0,13.0,-100.00,ENE,59,7.0,14.0,21,-99.99,,,-99.99,,2013-02-02 20:42:00,
2013-02-02 14:52:00,52.0,12.0,-100.00,ENE,76,6.0,13.0,20,-99.99,,,-99.99,,2013-02-02 20:52:00,
2013-02-02 15:02:00,52.0,12.0,-100.00,ENE,75,7.0,14.0,20,-99.99,,,-99.99,,2013-02-02 21:02:00,
2013-02-02 15:11:00,52.0,12.0,-100.00,ENE,71,7.0,13.0,20,-99.99,,,-99.99,,2013-02-02 21:11:00,
2013-02-02 15:21:00,52.0,12.0,-100.00,ENE,77,9.0,15.0,20,-99.99,,,-99.99,,2013-02-02 21:21:00,
2013-02-02 15:32:00,52.0,11.0,-100.00,ENE,66,9.0,13.0,19,-99.99,,,-99.99,,2013-02-02 21:32:00,
2013-02-02 15:42:00,52.0,11.0,-100.00,ENE,66,9.0,13.0,19,-99.99,,,-99.99,,2013-02-02 21:42:00,
2013-02-02 15:52:00,52.0,11.0,-100.00,ENE,75,9.0,15.0,19,-99.99,,,-99.99,,2013-02-02 21:52:00,
2013-02-02 16:02:00,52.0,11.0,-100.00,East,81,8.0,13.0,19,-99.99,,,-99.99,,2013-02-02 22:02:00,
2013-02-02 16:12:00,52.0,11.0,-100.00,East,81,9.0,14.0,19,-99.99,,,-99.99,,2013-02-02 22:12:00,
2013-02-02 16:21:00,52.0,11.0,-100.00,ENE,76,6.0,14.0,19,-99.99,,,-99.99,,2013-02-02 22:21:00,
2013-02-02 16:32:00,52.0,11.0,-100.00,ENE,78,7.0,12.0,19,-99.99,,,-99.99,,2013-02-02 22:32:00,
2013-02-02 16:42:00,52.0,12.0,-100.00,East,86,6.0,14.0,20,-99.99,,,-99.99,,2013-02-02 22:42:00,
2013-02-02 16:52:00,52.0,12.0,-100.00,East,79,6.0,14.0,20,-99.99,,,-99.99,,2013-02-02 22:52:00,
2013-02-02 17:02:00,52.0,12.0,-100.00,East,79,6.0,14.0,20,-99.99,,,-99.99,,2013-02-02 23:02:00,
2013-02-02 17:11:00,50.0,12.0,-100.00,East,89,10.0,15.0,21,-99.99,,,-99.99,,2013-02-02 23:11:00,
2013-02-02 17:21:00,50.0,12.0,-100.00,East,88,10.0,14.0,21,-99.99,,,-99.99,,2013-02-02 23:21:00,
2013-02-02 17:32:00,50.0,12.0,-100.00,East,84,7.0,12.0,21,-99.99,,,-99.99,,2013-02-02 23:32:00,
2013-02-02 17:42:00,50.0,13.0,-100.00,East,85,10.0,14.0,22,-99.99,,,-99.99,,2013-02-02 23:42:00,
2013-02-02 17:52:00,48.0,11.0,-100.00,East,89,11.0,15.0,22,-99.99,,,-99.99,,2013-02-02 23:52:00,
2013-02-02 18:02:00,48.0,11.0,-100.00,East,81,9.0,13.0,22,-99.99,,,-99.99,,2013-02-03 00:02:00,
2013-02-02 18:11:00,48.0,12.0,-100.00,East,85,9.0,15.0,23,-99.99,,,-99.99,,2013-02-03 00:11:00,
2013-02-02 18:22:00,48.0,12.0,-100.00,East,80,8.0,13.0,23,-99.99,,,-99.99,,2013-02-03 00:22:00,
2013-02-02 18:32:00,46.0,11.0,-100.00,East,81,9.0,13.0,23,-99.99,,,-99.99,,2013-02-03 00:32:00,
2013-02-02 18:42:00,46.0,12.0,-100.00,East,83,9.0,13.0,24,-99.99,,,-99.99,,2013-02-03 00:42:00,
2013-02-02 18:51:00,45.0,11.0,-100.00,East,82,9.0,13.0,25,-99.99,,,-99.99,,2013-02-03 00:51:00,
2013-02-02 19:02:00,45.0,12.0,-100.00,ENE,78,9.0,12.0,26,-99.99,,,-99.99,,2013-02-03 01:02:00,
2013-02-02 19:11:00,45.0,12.0,-100.00,ENE,77,8.0,10.0,26,-99.99,,,-99.99,,2013-02-03 01:11:00,
2013-02-02 19:21:00,45.0,13.0,-100.00,ENE,78,9.0,12.0,27,-99.99,,,-99.99,,2013-02-03 01:21:00,
2013-02-02 19:32:00,45.0,14.0,-100.00,East,80,9.0,13.0,28,-99.99,,,-99.99,,2013-02-03 01:32:00,
2013-02-02 19:42:00,43.0,12.0,-100.00,East,83,8.0,11.0,28,-99.99,,,-99.99,,2013-02-03 01:42:00,
2013-02-02 19:52:00,43.0,14.0,-100.00,East,83,9.0,12.0,30,-99.99,,,-99.99,,2013-02-03 01:52:00,
2013-02-02 20:01:00,43.0,14.0,-100.00,East,83,9.0,12.0,30,-99.99,,,-99.99,,2013-02-03 02:01:00,
2013-02-02 20:11:00,43.0,14.0,-100.00,East,86,9.0,13.0,31,-99.99,,,-99.99,,2013-02-03 02:11:00,
2013-02-02 20:21:00,43.0,15.0,-100.00,East,84,10.0,13.0,32,-99.99,,,-99.99,,2013-02-03 02:21:00,
2013-02-02 20:32:00,43.0,15.0,-100.00,East,89,9.0,12.0,32,-99.99,,,-99.99,,2013-02-03 02:32:00,
2013-02-02 20:42:00,43.0,15.0,-100.00,ENE,77,8.0,10.0,32,-99.99,,,-99.99,,2013-02-03 02:42:00,
2013-02-02 20:52:00,43.0,15.0,-100.00,East,81,8.0,10.0,32,-99.99,,,-99.99,,2013-02-03 02:52:00,
2013-02-02 21:02:00,43.0,15.0,-100.00,East,90,8.0,11.0,32,-99.99,,,-99.99,,2013-02-03 03:02:00,
2013-02-02 21:11:00,43.0,16.0,-100.00,East,91,9.0,11.0,33,-99.99,,,-99.99,,2013-02-03 03:11:00,
2013-02-02 21:21:00,43.0,16.0,-100.00,East,98,8.0,11.0,33,-99.99,,,-99.99,,2013-02-03 03:21:00,
2013-02-02 21:31:00,43.0,16.0,-100.00,East,95,9.0,11.0,33,-99.99,,,-99.99,,2013-02-03 03:31:00,
2013-02-02 21:42:00,43.0,16.0,-100.00,East,88,8.0,10.0,33,-99.99,,,-99.99,,2013-02-03 03:42:00,
2013-02-02 21:51:00,43.0,16.0,-100.00,East,86,10.0,12.0,34,-99.99,,,-99.99,,2013-02-03 03:51:00,
2013-02-02 22:01:00,43.0,16.0,-100.00,East,90,10.0,12.0,34,-99.99,,,-99.99,,2013-02-03 04:01:00,
2013-02-02 22:11:00,43.0,17.0,-100.00,East,97,10.0,12.0,35,-99.99,,,-99.99,,2013-02-03 04:11:00,
2013-02-02 22:21:00,43.0,17.0,-100.00,ESE,104,12.0,14.0,35,-99.99,,,-99.99,,2013-02-03 04:21:00,
2013-02-02 22:31:00,41.0,16.0,-100.00,ESE,115,10.0,11.0,36,-99.99,,,-99.99,,2013-02-03 04:31:00,
2013-02-02 22:42:00,41.0,16.0,-100.00,ESE,106,9.0,11.0,36,-99.99,,,-99.99,,2013-02-03 04:42:00,
2013-02-02 22:52:00,41.0,16.0,-100.00,East,96,10.0,11.0,36,-99.99,,,-99.99,,2013-02-03 04:52:00,
2013-02-02 23:03:00,41.0,16.0,-100.00,ESE,106,9.0,10.0,36,-99.99,,,-99.99,,2013-02-03 05:03:00,
2013-02-02 23:12:00,41.0,16.0,-100.00,ESE,106,9.0,10.0,36,-99.99,,,-99.99,,2013-02-03 05:12:00,
2013-02-02 23:22:00,41.0,16.0,-100.00,ESE,120,9.0,10.0,36,-99.99,,,-99.99,,2013-02-03 05:22:00,
2013-02-02 23:32:00,41.0,16.0,-100.00,ESE,103,9.0,9.0,36,-99.99,,,-99.99,,2013-02-03 05:32:00,
2013-02-02 23:42:00,41.0,15.0,-100.00,ESE,122,9.0,10.0,35,-99.99,,,-99.99,,2013-02-03 05:42:00,
2013-02-02 23:52:00,41.0,16.0,-100.00,SE,125,8.0,9.0,36,-99.99,,,-99.99,,2013-02-03 05:52:00,